Weather History for Palm Springs, CA

Change the Weather History Date:

Friday, August 23, 2013

  Actual Average Record
Temperature  
Mean Temperature 94 °F 92 °F  
Max Temperature 102 °F 106 °F 119 °F (1985)
Min Temperature 86 °F 77 °F 57 °F (1943)
Degree Days  
Heating Degree Days 0 0  
Month to date heating degree days 0 0  
Since 1 June heating degree days 0 0  
Since 1 July heating degree days 0 0  
Cooling Degree Days 29 26  
Month to date cooling degree days 626 625  
Year to date cooling degree days 3303 2877  
Since 1 June cooling degree days 2261 2118  
Growing Degree Days 43 (Base 50)    
Moisture  
Dew Point 56 °F    
Average Humidity 30    
Maximum Humidity 36    
Minimum Humidity 23    
Precipitation  
Precipitation 0.00 in 0.01 in 0.18 in (1967)
Month to date precipitation 0.00 0.25  
Year to date precipitation 1.91 3.44  
Since 1 July precipitation 0.94 0.50  
Snow  
Snow 0.00 in - - ()
Month to date snowfall 0.0  
Year to date snowfall 0.0  
Since 1 July snowfall 0.0  
Snow Depth 0.00 in    
Sea Level Pressure  
Sea Level Pressure 29.76 in    
Wind  
Wind Speed 6 mph (NW)    
Max Wind Speed 16 mph    
Max Gust Speed 21 mph    
Visibility 10 miles    
Events      
T = Trace of Precipitation, MM = Missing Value Source: NWS Daily Summary

Daily Weather History Graph

Daily Weather History Graph

Search for Another Location

Airport:

Trip Planner

Search our weather history database for the weather conditions in past years. The results will help you decide how hot, cold, wet, or windy it might be!

Date:

Astronomy

Aug. 23, 2013 Rise Set
Actual Time 6:13 AM PDT 7:22 PM PDT
Civil Twilight 5:47 AM PDT 7:48 PM PDT
Nautical Twilight 5:17 AM PDT 8:19 PM PDT
Astronomical Twilight 4:45 AM PDT 8:51 PM PDT
Moon 8:56 PM PDT (8/23) 9:02 AM PDT (8/23)
Length of Visible Light 14h 00m
Length of Day
13h 08m
Waning Gibbous, 91% of the Moon is Illuminated
Aug 23
Waning Gibbous
Aug 28
Last Quarter
Sep 5
New
Sep 12
First Quarter
Sep 19
Full

Hourly Weather History & Observations

Time (PDT) Temp. Heat Index Dew Point Humidity Pressure Visibility Wind Dir Wind Speed Gust Speed Precip Events Conditions
12:53 AM 93.0 °F 92.7 °F 60.1 °F 33% 29.80 in 8.0 mi North 5.8 mph - N/A   Overcast
1:32 AM 91.4 °F 89.1 °F 53.6 °F 28% 29.80 in 10.0 mi NNW 5.8 mph - N/A   Overcast
1:53 AM 91.9 °F - 50.0 °F 24% 29.78 in 10.0 mi NNW 6.9 mph - N/A   Overcast
2:10 AM 91.4 °F - 51.8 °F 26% 29.80 in 10.0 mi North 5.8 mph - N/A   Overcast
2:29 AM 91.4 °F - 50.0 °F 24% 29.79 in 10.0 mi NNW 5.8 mph - N/A   Overcast
2:46 AM 89.6 °F - 48.2 °F 24% 29.79 in 10.0 mi NW 5.8 mph - N/A   Overcast
2:53 AM 90.0 °F - 46.9 °F 23% 29.78 in 10.0 mi Calm Calm - N/A   Overcast
3:53 AM 89.1 °F - 48.9 °F 25% 29.78 in 10.0 mi Calm Calm - N/A   Overcast
4:53 AM 87.1 °F 86.1 °F 57.9 °F 37% 29.78 in 10.0 mi Calm Calm - N/A   Overcast
5:09 AM 89.6 °F 87.3 °F 53.6 °F 29% 29.80 in 10.0 mi NNW 4.6 mph - N/A   Overcast
5:51 AM 89.6 °F 87.3 °F 53.6 °F 29% 29.80 in 10.0 mi NNW 5.8 mph - N/A   Scattered Clouds
5:53 AM 89.1 °F 86.7 °F 53.1 °F 29% 29.78 in 10.0 mi NNW 5.8 mph - N/A   Partly Cloudy
6:53 AM 86.0 °F - 46.9 °F 26% 29.80 in 10.0 mi North 5.8 mph - N/A   Clear
7:53 AM 88.0 °F - 48.9 °F 26% 29.81 in 9.0 mi West 3.5 mph - N/A   Partly Cloudy
8:53 AM 91.9 °F 89.5 °F 53.1 °F 27% 29.81 in 10.0 mi Calm Calm - N/A   Clear
9:53 AM 93.9 °F 92.6 °F 57.0 °F 29% 29.82 in 9.0 mi East 5.8 mph - N/A   Clear
10:53 AM 97.0 °F 97.4 °F 61.0 °F 30% 29.81 in 8.0 mi ESE 9.2 mph - N/A   Clear
11:53 AM 98.1 °F 99.6 °F 63.0 °F 31% 29.79 in 7.0 mi Variable 6.9 mph - N/A   Clear
12:53 PM 100.0 °F 101.8 °F 62.1 °F 29% 29.76 in 7.0 mi East 8.1 mph - N/A   Scattered Clouds
1:53 PM 99.0 °F 99.5 °F 61.0 °F 28% 29.74 in 10.0 mi ESE 10.4 mph 17.3 mph N/A   Scattered Clouds
2:53 PM 100.9 °F 102.7 °F 62.1 °F 28% 29.72 in 10.0 mi SE 12.7 mph - N/A   Scattered Clouds
3:53 PM 98.1 °F 100.7 °F 64.0 °F 33% 29.71 in 10.0 mi South 13.8 mph - N/A   Clear
4:53 PM 98.1 °F 96.4 °F 55.9 °F 24% 29.68 in 10.0 mi SE 13.8 mph - N/A   Scattered Clouds
5:53 PM 99.0 °F 99.5 °F 61.0 °F 28% 29.67 in 10.0 mi Calm Calm - N/A   Scattered Clouds
6:53 PM 97.0 °F 97.8 °F 62.1 °F 31% 29.67 in 10.0 mi SW 4.6 mph - N/A   Clear
7:53 PM 95.0 °F 96.0 °F 63.0 °F 34% 29.68 in 10.0 mi SW 4.6 mph - N/A   Clear
8:53 PM 93.0 °F 95.0 °F 64.9 °F 39% 29.70 in 10.0 mi West 6.9 mph - N/A   Clear
9:53 PM 91.9 °F - 52.0 °F 26% 29.71 in 10.0 mi SW 3.5 mph - N/A   Clear
10:53 PM 91.9 °F - 52.0 °F 26% 29.71 in 10.0 mi NE 4.6 mph - N/A   Clear
11:53 PM 87.1 °F 86.1 °F 57.9 °F 37% 29.73 in 10.0 mi SW 4.6 mph - N/A   Clear